Theta_e
302 301 299 301 300 298 298 298 299 300 300 301 301 301 301 302 302 301 301 300 300 300 300 300 300 300 301 301 302 303 304 304 305 307 318 325 330 333 336 335 336 337 337 336
303 303 302 302 301 302 302 302 302 301 301 301 302 302 302 303 303 302 302 301 300 300 301 301 302 301 300 301 302 303 303 304 305 308 319 324 324 325 331 334 333 336 336 336
303 303 303 304 304 304 303 302 301 303 302 302 303 303 302 303 305 307 306 304 304 304 305 306 305 304 300 301 302 302 303 304 306 309 315 322 322 324 327 330 332 333 333 334
303 303 304 304 304 302 303 302 303 304 304 299 305 307 303 303 305 308 308 308 308 306 306 306 305 304 302 301 302 303 303 304 306 309 315 320 321 323 325 328 332 333 331 334
302 303 304 305 304 301 302 301 304 306 307 308 303 309 303 302 310 309 308 308 307 306 307 306 305 305 304 302 302 303 304 305 306 309 315 318 321 322 321 323 329 332 332 333
301 301 303 303 304 304 305 307 306 309 309 309 300 306 302 302 311 309 308 307 307 306 305 305 306 307 304 303 303 304 305 306 307 311 315 317 320 322 323 325 328 329 331 331
299 300 303 304 307 307 308 307 300 300 301 302 295 304 304 304 309 309 308 307 306 306 305 304 307 306 306 305 305 305 307 308 309 312 315 317 318 321 323 325 327 329 330 330
303 301 305 308 308 309 308 305 303 305 297 303 304 309 303 310 308 308 307 307 306 305 305 304 305 307 308 308 308 309 310 313 313 315 316 317 317 321 322 324 325 326 329 329
302 304 306 309 310 310 308 312 308 307 305 312 299 302 305 308 309 308 306 305 305 305 306 304 305 308 309 311 311 311 312 314 315 316 317 319 318 319 323 324 325 327 328 327
308 307 310 310 311 312 312 312 315 314 313 307 305 299 312 311 310 308 306 305 304 306 309 309 306 308 310 312 313 313 313 314 315 315 315 317 318 320 322 322 324 324 327 328
309 309 312 311 314 314 314 315 316 315 310 313 311 306 311 310 310 307 305 304 305 314 316 313 308 309 312 313 314 315 315 315 316 317 317 317 318 319 321 321 323 325 327 328
311 312 310 312 312 310 312 312 311 305 309 304 310 308 309 310 309 305 304 304 310 312 316 313 314 316 316 316 315 315 316 317 317 317 317 317 318 321 322 321 324 325 327 328
310 309 304 306 308 310 312 310 310 311 307 309 312 312 310 309 308 305 304 305 308 309 310 312 315 316 316 316 315 315 313 314 315 316 317 319 320 323 322 323 323 325 328 328
310 312 306 308 309 311 309 309 309 305 307 311 312 313 310 310 307 304 303 305 307 307 308 308 310 311 314 316 315 313 312 313 313 316 317 318 321 323 323 323 323 325 327 328
307 311 312 312 312 311 310 310 309 307 311 308 311 313 311 309 308 305 304 305 306 306 307 307 308 308 308 311 312 313 313 314 315 317 319 315 322 324 324 325 325 326 326 327
304 309 309 310 311 309 311 310 309 310 310 310 310 312 308 308 308 306 305 305 304 304 305 305 305 305 305 306 308 309 310 311 312 312 312 312 313 318 321 322 323 325 326 326
306 305 305 308 307 306 306 310 310 310 310 309 312 310 308 309 309 306 305 304 304 303 303 303 303 303 303 304 304 305 306 307 307 307 307 307 308 309 311 315 319 320 320 322
305 304 304 305 304 307 304 309 309 311 310 309 309 308 307 308 307 305 303 303 302 301 301 301 301 301 301 302 302 302 303 304 304 304 304 305 306 306 306 308 308 309 312 315
301 303 306 306 306 304 307 308 310 310 309 308 307 307 306 306 305 306 302 301 300 299 299 299 299 299 299 299 300 300 300 300 300 300 301 302 303 303 305 305 306 307 308 306
301 300 304 304 307 308 304 306 306 307 310 307 306 307 306 305 305 303 299 298 297 297 297 296 297 297 298 298 298 299 298 298 298 298 299 301 301 301 301 301 301 302 303 302
302 301 305 305 304 303 302 305 304 309 305 306 306 306 305 304 301 300 298 297 296 296 296 295 295 295 296 297 298 297 297 296 298 300 300 300 300 300 300 300 300 301 301 302
301 301 303 303 305 301 301 304 307 302 305 304 304 303 303 301 300 300 298 297 296 295 295 295 294 294 295 297 296 295 294 297 299 299 299 299 299 299 300 300 300 300 300 299
303 300 301 302 302 298 300 304 302 302 304 303 302 301 301 301 301 300 299 298 296 295 296 296 295 295 295 295 296 294 294 296 296 296 295 296 297 297 296 297 297 297 298 298
298 297 301 302 300 298 300 301 302 302 303 302 301 301 300 301 300 299 297 296 296 296 296 296 296 295 294 294 294 294 294 295 295 294 294 295 295 295 295 294 295 294 294 295
297 298 299 298 298 298 299 300 302 302 302 301 301 301 301 300 299 298 297 296 296 296 296 296 296 295 294 295 295 295 295 294 294 293 292 291 291 291 291 291 291 291 292 293
295 298 300 298 297 299 299 300 300 302 302 301 301 301 301 300 300 299 297 298 297 297 297 297 296 296 295 295 294 293 292 292 292 291 291 290 289 288 288 287 287 288 290 291
Wind_Speed
3 4 3 6 5 3 3 3 8 7 12 7 14 18 20 22 15 16 15 16 15 16 17 25 28 28 33 34 34 35 33 34 31 30 29 21 17 22 27 33 38 41 40 41
1 4 6 5 3 2 4 7 10 11 7 5 13 21 21 17 8 6 8 9 12 14 14 16 23 27 30 34 37 36 36 35 35 33 28 23 23 26 31 34 28 31 35 39
4 2 5 3 1 3 5 6 4 9 8 7 7 8 3 2 3 2 2 7 9 12 15 16 17 24 25 33 36 37 37 38 36 35 32 29 24 23 23 23 27 37 38 41
3 3 3 1 5 7 6 7 10 8 4 2 5 6 6 4 7 4 11 13 16 15 15 15 15 20 24 32 36 36 37 38 38 37 32 32 27 20 21 24 31 34 41 39
5 0 1 2 4 5 8 5 5 4 4 5 3 4 7 3 5 11 15 16 17 16 18 19 15 21 26 29 35 37 36 38 38 37 36 34 30 28 29 32 31 33 37 40
6 1 2 5 4 8 4 4 3 2 2 4 5 4 5 2 7 19 20 21 19 17 17 17 20 20 22 25 29 33 35 38 39 38 37 36 33 29 27 27 26 29 31 36
5 2 3 4 3 2 2 2 3 4 1 6 3 3 8 3 12 19 22 22 21 16 15 13 13 8 14 20 28 31 32 34 36 36 37 37 35 34 33 30 29 28 29 31
3 5 4 4 3 2 3 4 3 4 2 5 4 5 5 2 19 20 20 20 19 17 14 12 13 9 13 18 24 26 26 30 31 34 36 38 40 36 33 32 29 30 30 33
1 4 3 3 3 2 2 4 4 3 2 3 3 6 4 12 23 27 25 22 22 19 16 14 13 12 13 16 18 23 25 28 29 31 35 37 37 36 32 33 35 31 34 34
0 3 3 3 5 8 4 3 2 2 5 5 4 2 9 25 28 29 29 28 26 22 15 11 9 10 15 17 19 22 28 27 33 35 36 36 38 37 37 36 34 34 35 38
2 2 4 3 2 2 1 2 4 2 0 2 5 4 5 19 20 20 22 23 24 19 9 6 5 7 12 11 12 17 22 26 25 27 31 33 32 34 36 35 36 35 38 38
3 1 2 3 5 4 4 3 3 3 3 2 2 5 10 20 21 17 21 22 19 17 11 5 3 4 3 3 7 10 6 9 14 21 24 27 28 27 30 34 27 33 38 40
1 1 3 7 3 1 2 4 3 1 2 2 3 6 14 18 21 22 22 22 19 18 17 14 9 5 2 7 8 14 16 13 15 19 18 22 25 27 28 32 21 19 30 34
2 2 2 3 2 3 4 7 5 2 2 2 2 10 17 21 20 22 23 22 19 20 19 14 14 12 13 5 4 9 18 24 33 31 24 28 29 25 24 20 21 25 27 27
3 2 2 0 3 3 2 4 7 4 1 3 5 7 11 16 16 18 16 23 22 21 21 16 13 11 14 16 18 15 23 25 26 29 22 13 15 16 16 11 25 24 18 17
1 4 4 3 5 1 4 5 4 3 2 3 6 5 3 12 13 17 19 20 20 21 18 18 20 20 18 26 27 30 29 30 35 34 26 28 33 22 18 27 28 24 20 15
1 4 2 3 0 4 5 5 2 2 3 3 2 3 3 10 13 15 16 16 17 19 20 21 20 18 26 29 31 30 30 35 34 32 31 33 33 34 32 30 31 29 24 20
1 2 2 2 2 2 4 2 4 4 5 4 4 4 7 6 5 8 13 13 14 15 17 17 15 25 28 31 33 33 34 35 34 33 33 34 35 36 35 33 30 27 25 24
1 2 1 1 2 4 2 5 5 5 4 5 3 1 4 5 3 3 12 12 11 12 13 16 22 23 27 31 29 32 36 32 35 32 32 33 33 34 34 33 31 28 28 28
3 4 2 0 0 4 5 4 3 2 4 6 3 3 2 1 3 3 6 7 8 13 15 16 17 20 25 27 28 34 30 30 29 29 33 34 33 33 32 30 29 27 27 25
1 1 3 2 3 7 5 5 4 2 5 4 4 2 2 3 3 1 3 6 10 12 16 19 23 22 24 24 22 25 22 26 28 31 32 32 32 31 29 28 26 23 23 23
6 4 4 2 2 5 6 5 6 4 2 4 4 4 4 5 5 4 3 2 6 9 15 18 16 22 27 27 30 26 25 24 25 25 27 29 27 25 24 24 24 23 22 23
3 6 3 8 5 3 6 2 3 5 5 5 5 5 6 5 4 3 2 1 3 5 9 12 18 21 22 23 22 24 19 21 22 24 24 23 22 20 20 21 20 19 20 20
4 3 3 2 3 8 8 5 5 6 6 6 5 7 7 5 5 4 3 2 1 2 6 8 13 17 16 17 20 18 17 19 19 20 21 19 19 17 18 19 18 19 16 14
5 6 5 6 8 4 8 9 7 6 5 6 5 7 7 6 6 6 5 4 4 2 2 4 8 11 12 14 18 17 16 15 18 18 18 19 18 16 16 18 17 15 14 13
6 8 6 6 7 5 4 8 9 10 9 8 9 6 6 8 7 6 5 6 6 4 2 2 3 4 6 8 9 8 9 12 11 10 12 13 13 13 14 14 12 10 10 9
Wind_Direction
20 64 210 221 205 119 113 226 266 268 272 300 265 276 280 284 276 268 265 273 275 272 272 274 271 263 258 252 247 243 244 244 241 239 234 226 215 217 214 218 217 209 206 208
19 264 239 199 155 197 268 287 291 285 271 220 283 285 282 285 275 245 250 263 267 275 279 277 274 264 249 243 243 242 243 239 239 236 223 211 212 218 222 222 209 196 204 208
170 200 49 115 163 219 234 235 243 257 312 267 298 292 317 287 283 185 260 263 282 278 280 285 281 270 245 236 235 238 240 238 236 235 223 220 219 219 215 210 210 211 209 213
243 263 218 295 248 181 274 222 248 263 350 298 61 292 299 275 301 320 321 324 310 303 291 278 272 269 246 233 238 240 239 237 237 233 215 214 216 205 204 205 204 212 212 212
255 196 108 237 232 146 233 196 233 276 239 303 313 244 264 286 274 324 330 321 314 304 298 294 260 257 256 235 233 236 237 239 236 229 217 211 213 212 216 216 210 208 212 210
242 323 221 215 236 207 264 301 330 292 302 259 225 180 282 277 323 325 322 319 310 308 302 299 267 267 260 239 234 237 234 231 232 223 216 210 209 207 206 205 204 209 207 209
335 237 275 204 262 83 107 44 334 353 1 226 240 97 251 287 332 325 320 318 312 304 298 296 291 274 262 248 235 232 227 227 225 213 212 210 209 206 207 205 202 209 211 207
13 344 200 176 205 261 195 153 170 248 244 278 194 234 267 220 333 326 321 316 315 309 299 284 279 262 257 258 250 232 213 219 218 209 210 211 209 207 209 210 208 210 212 214
125 287 288 204 241 190 233 222 192 253 224 271 240 293 325 327 333 333 333 329 321 312 301 287 272 251 259 265 258 240 220 218 214 213 208 206 213 208 204 207 215 214 214 218
72 304 244 276 246 197 221 315 240 222 321 299 299 304 317 339 335 338 336 331 322 313 296 278 251 253 256 257 253 241 230 222 214 218 219 216 216 214 213 214 214 219 223 219
196 222 305 257 10 356 213 276 229 319 234 311 316 291 304 333 330 329 326 325 319 330 345 304 282 264 268 264 247 242 234 226 225 215 217 219 217 222 218 218 221 220 220 217
223 287 304 253 232 244 207 263 245 132 281 268 237 281 2 338 335 341 336 335 340 349 10 3 2 321 354 15 337 322 277 233 236 231 224 224 230 218 210 217 221 226 219 213
206 8 357 339 342 270 17 302 292 357 64 21 353 301 332 338 341 346 346 345 350 5 7 7 9 9 298 281 292 312 297 295 270 241 239 223 204 196 202 207 215 221 202 184
273 29 148 163 213 276 321 329 4 93 70 309 292 302 336 339 345 344 346 349 359 7 6 15 28 13 7 312 284 308 284 268 266 239 241 239 208 198 200 217 219 207 193 176
141 97 21 83 273 322 286 313 353 36 321 102 289 309 320 335 346 345 345 357 4 2 5 16 23 29 31 35 71 80 58 64 69 103 103 79 178 171 183 141 155 172 177 179
312 165 165 245 241 110 308 329 331 337 345 293 292 295 271 321 334 357 2 1 358 359 7 19 26 27 25 30 33 41 45 46 58 60 58 59 83 117 104 100 114 113 123 143
40 139 131 265 51 292 308 234 271 282 248 261 324 294 342 314 338 1 356 359 4 2 9 12 19 25 30 31 35 36 43 49 48 50 51 54 63 69 76 89 91 95 96 101
154 113 139 269 5 300 247 213 199 250 249 233 270 301 290 268 318 3 359 0 4 7 10 11 17 26 30 37 40 45 44 47 49 48 48 51 57 61 66 73 77 86 91 95
129 117 267 184 196 284 265 217 204 195 276 200 221 270 287 290 330 346 4 5 4 6 5 9 15 22 32 38 42 52 49 47 46 41 46 54 58 62 65 65 68 70 72 72
45 81 129 62 144 216 222 221 160 95 289 184 189 168 355 61 25 296 343 349 357 13 19 22 25 39 41 34 45 53 46 46 45 48 55 57 60 61 61 63 62 65 67 68
280 293 211 232 255 286 230 169 132 117 239 159 165 160 150 148 196 203 339 13 21 25 25 38 47 46 46 46 49 51 49 48 56 58 59 57 56 58 61 64 65 69 71 69
189 167 214 131 244 300 168 92 168 213 86 150 157 168 128 139 162 160 110 40 37 34 36 50 50 52 55 58 59 54 50 58 61 61 61 60 58 59 61 65 65 64 64 65
258 194 195 186 215 221 215 244 202 167 157 185 173 183 161 171 200 191 181 91 60 54 57 55 64 62 57 59 61 62 55 57 58 62 64 65 64 64 62 65 59 54 53 54
249 171 228 345 236 220 222 226 240 192 189 174 185 170 175 177 182 205 203 205 152 69 54 49 57 57 52 53 60 56 55 57 59 60 58 55 55 53 58 61 56 54 43 41
210 143 203 258 267 304 247 218 191 200 189 159 156 173 186 175 196 191 195 192 195 154 96 73 66 61 48 44 47 41 38 40 47 46 43 42 40 37 43 48 43 40 45 39
188 189 174 223 210 169 220 208 174 173 185 183 164 168 195 194 191 185 194 197 193 185 162 92 60 52 54 50 54 51 49 54 61 63 53 48 46 44 46 45 46 45 44 40